Weather observations for the past three days for
Cleveland Hopkins International Airport
Imperial (Metric)
Date Time (edt) Wind (mph) Vis. (mi.) Weather Sky Cond. Temperature (ºF) Relative Humidity Wind Chill (°F) Heat Index (°F) Pressure Precipitation (in)
Air Dwpt 6 hour altimeter (in) sea level (mb) 1 hr 3 hr 6 hr
Max. Min.
14 09:51 SW 10 10.00 Partly Cloudy FEW040 FEW110 SCT250 82.9 66.9 59% 86 30.05 1018.5
14 08:51 SW 10 10.00 Mostly Cloudy FEW040 FEW150 BKN250 80.1 66.9 64% 82 30.07 1019.0
14 07:51 S 8 10.00 Mostly Cloudy FEW040 FEW150 BKN250 77 66 77 68 69% 79 30.07 1019.2
14 06:51 S 7 10.00 Partly Cloudy SCT150 72 66 82% 30.07 1019.2
14 05:51 S 6 10.00 Partly Cloudy FEW042 SCT150 70 66 87% 30.08 1019.3
14 04:51 SW 5 10.00 Partly Cloudy SCT042 68 64.9 90% 30.08 1019.4
14 03:51 SW 3 10.00 Fair CLR 69.1 64.9 87% 30.07 1019.1
14 02:51 S 7 10.00 Fair CLR 71.1 66 84% 30.07 1019.1
14 01:51 S 8 10.00 Fair CLR 70 64 82 70 82% 30.1 1020.1
14 00:51 S 5 10.00 Fair CLR 71.1 64.9 81% 30.12 1020.7
13 23:51 Calm 10.00 Fair CLR 71.1 64 79% 30.11 1020.6
13 22:51 S 3 10.00 Fair CLR 73.9 64 71% 30.11 1020.3
13 21:51 Calm 10.00 Fair CLR 77 64 64% 79 30.12 1020.7
13 20:51 N 3 10.00 Fair CLR 79 64 60% 81 30.12 1020.9
13 19:51 NE 5 10.00 Fair CLR 82 63 87.1 82 53% 83 30.13 1021.0
13 18:51 N 7 10.00 A Few Clouds FEW060 82.9 63 51% 84 30.13 1021.2
13 17:51 NE 9 10.00 A Few Clouds FEW060 FEW200 84.9 62.1 46% 85 30.14 1021.4
13 16:51 N 9 10.00 A Few Clouds FEW060 FEW200 84.9 60.1 43% 85 30.15 1021.6
13 15:51 N 10 10.00 A Few Clouds FEW050 FEW200 84.9 63 48% 86 30.15 1021.6
13 14:51 N 12 10.00 Partly Cloudy SCT050 84.9 66 53% 87 30.15 1021.7
13 13:51 N 14 10.00 Partly Cloudy SCT050 SCT070 87.1 66.9 88 73.9 51% 90 30.15 1021.9
13 12:51 N 10 10.00 Mostly Cloudy SCT048 BKN065 84.9 66 53% 87 30.15 1021.9
13 11:51 Calm 10.00 Partly Cloudy SCT050 84.9 66 53% 87 30.16 1022.2
13 10:51 Calm 10.00 A Few Clouds FEW050 FEW250 84 64.9 53% 86 30.17 1022.3
13 09:51 Calm 10.00 A Few Clouds FEW046 80.1 66.9 64% 82 30.18 1022.7
13 08:51 S 3 10.00 A Few Clouds FEW075 78.1 66.9 69% 80 30.18 1022.6
13 07:51 Calm 10.00 Mostly Cloudy BKN080 73.9 66.9 73.9 68 79% 30.17 1022.6
13 06:51 S 6 10.00 Partly Cloudy FEW075 SCT090 70 66 87% 30.16 1022.3
13 05:51 Calm 10.00 Partly Cloudy SCT090 70 64.9 84% 30.16 1022.1
13 04:51 Calm 10.00 A Few Clouds FEW090 72 64.9 79% 30.15 1021.8
13 03:51 NE 3 10.00 Fair CLR 71.1 66 84% 30.13 1021.2
13 02:51 Calm 10.00 Fair CLR 72 64.9 79% 30.12 1021.0
13 01:51 Calm 10.00 A Few Clouds FEW090 71.1 64 79 71.1 79% 30.13 1021.2
13 00:51 E 3 10.00 A Few Clouds FEW095 75 64.9 71% 77 30.13 1021.2
12 23:51 N 3 10.00 Mostly Cloudy FEW060 FEW075 BKN110 73.9 64.9 74% 30.13 1021.2
12 22:51 N 3 10.00 Mostly Cloudy BKN060 75 64 69% 77 30.13 1021.2
12 21:51 N 5 10.00 Partly Cloudy SCT060 SCT250 75.9 61 60% 78 30.12 1020.9
12 20:51 N 6 10.00 Partly Cloudy SCT070 SCT250 77 61 58% 79 30.12 1020.8
12 19:51 N 9 10.00 A Few Clouds FEW250 79 61 84.9 79 54% 80 30.12 1020.8
12 18:51 N 10 10.00 A Few Clouds FEW060 FEW250 82 61 49% 83 30.11 1020.5
12 17:51 N 8 10.00 Partly Cloudy FEW060 SCT250 82 63 53% 83 30.11 1020.5
12 16:51 N 8 10.00 Partly Cloudy FEW080 SCT120 82 63 53% 83 30.11 1020.5
12 15:51 N 10 10.00 Mostly Cloudy SCT085 BKN110 82.9 64 53% 84 30.11 1020.8
12 14:51 N 13 10.00 Mostly Cloudy SCT050 SCT065 BKN110 82 64 55% 84 30.13 1021.2
12 13:51 NE 9 10.00 Mostly Cloudy FEW055 BKN065 BKN095 BKN250 82.9 64.9 84.9 71.1 55% 85 30.14 1021.4
12 12:51 N 9 10.00 Mostly Cloudy BKN042 BKN090 BKN250 82 64.9 56% 84 30.15 1021.8
12 11:51 Vrbl 3 10.00 Partly Cloudy SCT043 SCT140 81 63 54% 82 30.15 1022.0
12 10:51 Calm 10.00 A Few Clouds FEW045 FEW140 80.1 62.1 54% 81 30.15 1021.8
12 09:51 SE 5 10.00 Mostly Cloudy BKN130 78.1 64 62% 80 30.14 1021.7
12 08:51 S 8 10.00 Partly Cloudy SCT150 75 63 66% 77 30.14 1021.7
12 07:51 S 6 10.00 Partly Cloudy SCT150 71.1 63 71.1 64 76% 30.13 1021.4
12 06:51 Calm 10.00 A Few Clouds FEW150 66 62.1 87% 30.12 1021.1
12 05:51 SE 3 10.00 A Few Clouds FEW190 64 60.1 87% 30.11 1020.5
12 04:51 Calm 10.00 A Few Clouds FEW190 66 61 84% 30.1 1020.5
12 03:51 Calm 10.00 A Few Clouds FEW190 64 60.1 87% 30.1 1020.4
12 02:51 S 5 10.00 Fair CLR 64.9 61 87% 30.1 1020.2
12 01:51 Calm 10.00 Fair CLR 69.1 61 78.1 66.9 76% 30.1 1020.5
12 00:51 Calm 10.00 Fair CLR 69.1 62.1 78% 30.1 1020.4
11 23:51 SE 5 10.00 Fair CLR 68 61 78% 30.1 1020.3
11 22:51 N 5 10.00 Fair CLR 72 61 68% 30.1 1020.1
11 21:51 N 3 10.00 A Few Clouds FEW200 73.9 61 64% 30.09 1019.9
11 20:51 N 5 10.00 Fair CLR 75 61 62% 77 30.08 1019.8
11 19:51 N 6 10.00 Fair CLR 78.1 60.1 81 78.1 54% 79 30.09 1019.7
11 18:51 N 7 10.00 A Few Clouds FEW030 79 62.1 56% 80 30.08 1019.5
11 17:51 N 7 10.00 A Few Clouds FEW030 79 62.1 56% 80 30.07 1019.2
11 16:51 NW 8 10.00 Partly Cloudy SCT031 79 62.1 56% 80 30.07 1019.3
11 15:51 N 12 10.00 A Few Clouds FEW032 79 62.1 56% 80 30.07 1019.2
11 14:51 N 13 10.00 A Few Clouds FEW032 80.1 60.1 51% 81 30.06 1019.0
11 13:51 N 12 10.00 A Few Clouds FEW032 79 61 80.1 71.1 54% 80 30.06 1018.9
11 12:51 N 8 10.00 Partly Cloudy SCT032 77 62.1 60% 79 30.07 1019.1
11 11:51 NW 12 G 17 10.00 Partly Cloudy SCT030 77 61 58% 79 30.05 1018.7
11 10:51 NW 12 G 22 10.00 Partly Cloudy SCT026 SCT200 77 63 62% 79 30.04 1018.3
Date Time (edt) Wind (mph) Vis. (mi.) Weather Sky Cond. Air Dwpt Max. Min. Relative Humidity Wind Chill (°F) Heat Index (°F) altimeter (in) sea level (mb) 1 hr 3 hr 6 hr
6 hour
Temperature (ºF) Pressure Precipitation (in)